Weather History for Biloxi, MS

Change the Weather History Date:

Thursday, May 23, 2013

  Actual Average Record
Temperature  
Mean Temperature 77 °F -  
Max Temperature 85 °F 84 °F 93 °F (1956)
Min Temperature 69 °F 66 °F 52 °F (1977)
Cooling Degree Days 12    
Growing Degree Days 27 (Base 50)    
Moisture  
Dew Point 71 °F    
Average Humidity 79    
Maximum Humidity 100    
Minimum Humidity 61    
Precipitation  
Precipitation 0.00 in - - ()
Sea Level Pressure  
Sea Level Pressure 30.02 in    
Wind  
Wind Speed 4 mph (SW)    
Max Wind Speed 13 mph    
Max Gust Speed -    
Visibility 10 miles    
Events      
Averages and records for this station are not official NWS values.
T = Trace of Precipitation, MM = Missing Value Source: NWS Daily Summary

Daily Weather History Graph

Daily Weather History Graph

Search for Another Location

Airport:

Trip Planner

Search our weather history database for the weather conditions in past years. The results will help you decide how hot, cold, wet, or windy it might be!

Date:

Astronomy

May. 23, 2013 Rise Set
Actual Time 5:57 AM CDT 7:48 PM CDT
Civil Twilight 5:30 AM CDT 8:14 PM CDT
Nautical Twilight 4:58 AM CDT 8:47 PM CDT
Astronomical Twilight 4:23 AM CDT 9:21 PM CDT
Moon 6:25 PM CDT 4:34 AM CDT
Length of Visible Light 14h 44m
Length of Day
13h 51m
Waxing Gibbous, 97% of the Moon is Illuminated
May 23
Waxing Gibbous
May 24
Full
May 31
Last Quarter
Jun 8
New
Jun 16
First Quarter

Hourly Weather History & Observations

Time (CDT) Temp. Heat Index Dew Point Humidity Pressure Visibility Wind Dir Wind Speed Gust Speed Precip Events Conditions
12:58 AM 73.4 °F - 68.5 °F 85% 29.98 in 10.0 mi SW 4.6 mph - N/A   Clear
1:58 AM 72.9 °F - 68.5 °F 86% 29.96 in 10.0 mi WSW 2.3 mph - N/A   Clear
2:58 AM 72.5 °F - 69.4 °F 90% 29.97 in 10.0 mi Calm Calm - N/A   Clear
3:58 AM 72.0 °F - 70.3 °F 95% 29.98 in 10.0 mi Calm Calm - N/A   Clear
4:28 AM 71.6 °F - 69.8 °F 94% 29.97 in 9.0 mi Calm Calm - N/A   Clear
4:43 AM 69.8 °F - 69.8 °F 100% 29.97 in 10.0 mi Calm Calm - N/A   Clear
4:58 AM 70.9 °F - 69.6 °F 96% 29.98 in 9.0 mi Calm Calm - N/A   Clear
5:58 AM 70.2 °F - 68.7 °F 95% 30.01 in 10.0 mi Calm Calm - N/A   Clear
6:58 AM 70.9 °F - 69.3 °F 95% 30.03 in 10.0 mi Calm Calm - N/A   Clear
7:58 AM 73.2 °F - 70.3 °F 91% 30.05 in 10.0 mi NNE 3.5 mph - N/A   Clear
8:48 AM 77.0 °F - 71.6 °F 83% 30.05 in 10.0 mi Variable 2.3 mph - N/A   Mostly Cloudy
8:58 AM 76.8 °F - 71.4 °F 83% 30.07 in 10.0 mi NE 4.6 mph - N/A   Mostly Cloudy
9:58 AM 78.3 °F - 71.6 °F 80% 30.07 in 10.0 mi Calm Calm - N/A   Overcast
10:18 AM 80.6 °F 84.6 °F 71.6 °F 74% 30.06 in 10.0 mi Variable 1.2 mph - N/A   Overcast
10:58 AM 81.3 °F 84.8 °F 69.8 °F 68% 30.06 in 10.0 mi NNW 2.3 mph - N/A   Clear
11:58 AM 83.8 °F 88.1 °F 70.0 °F 63% 30.06 in 10.0 mi SSW 8.1 mph - N/A   Mostly Cloudy
12:13 PM 84.2 °F 89.6 °F 71.6 °F 66% 30.05 in 10.0 mi SSW 8.1 mph - N/A   Scattered Clouds
12:58 PM 84.7 °F 89.7 °F 70.7 °F 63% 30.05 in 10.0 mi SSW 8.1 mph - N/A   Clear
1:58 PM 84.9 °F 89.7 °F 70.7 °F 62% 30.05 in 10.0 mi SW 10.4 mph - N/A   Clear
2:58 PM 85.1 °F 89.8 °F 70.3 °F 61% 30.03 in 10.0 mi SW 10.4 mph - N/A   Clear
3:58 PM 85.1 °F 90.1 °F 70.7 °F 62% 30.02 in 10.0 mi SW 12.7 mph - N/A   Clear
4:58 PM 84.4 °F 89.7 °F 71.2 °F 65% 30.01 in 10.0 mi SW 12.7 mph - N/A   Clear
5:58 PM 83.1 °F 88.1 °F 71.6 °F 68% 30.00 in 10.0 mi SW 9.2 mph - N/A   Clear
6:58 PM 81.0 °F 85.8 °F 73.0 °F 77% 30.00 in 10.0 mi SW 9.2 mph - N/A   Clear
7:58 PM 79.9 °F - 72.9 °F 79% 30.02 in 10.0 mi WSW 5.8 mph - N/A   Clear
8:58 PM 79.7 °F - 71.6 °F 76% 30.03 in 10.0 mi WSW 4.6 mph - N/A   Clear
9:58 PM 79.7 °F - 72.1 °F 78% 30.03 in 10.0 mi WSW 4.6 mph - N/A   Clear
10:58 PM 79.2 °F - 73.2 °F 82% 30.05 in 10.0 mi WSW 4.6 mph - N/A   Clear
11:58 PM 79.2 °F - 73.6 °F 83% 30.05 in 10.0 mi West 1.2 mph - N/A   Clear